Location: ?????
(44.4284°N, 135.2222°E)
Time: 01:13:31
(UTC+00:00)

USA 229 DEB - Pass Details

Date: 19 May 2025
Orbit: 872 x 1339 km, 63.4° (Epoch: 10 June)

Event Time Altitude Azimuth Distance (km) Brightness Sun altitude
Exits shadow 14:23:52 60° 152° (SSE) 1,084 3.4 -25.3°
Maximum altitude 14:24:31 63° 121° (ESE) 1,060 3.4 -25.3°
Drops below altitude 10° 14:31:02 10° 42° (NE) 2,846 6.4 -25.4°
Sets 14:33:50 0° 40° (NE) 3,875 7.3 -25.5°
